Weather History for Tampa Knight Airport, FL

Change the Weather History Date:

Tuesday, July 30, 2013

  Actual Average (KTPA) Record (KTPA)
Temperature  
Mean Temperature 85 °F 83 °F  
Max Temperature 95 °F 90 °F 96 °F (1949)
Min Temperature 75 °F 76 °F 69 °F (1904)
Degree Days  
Heating Degree Days 0 0  
Month to date heating degree days 0  
Since 1 June heating degree days 0  
Since 1 July heating degree days 0  
Cooling Degree Days 20 18  
Month to date cooling degree days 540  
Year to date cooling degree days 1933  
Since 1 June cooling degree days 1056  
Growing Degree Days 35 (Base 50)    
Moisture  
Dew Point 71 °F    
Average Humidity 71    
Maximum Humidity 89    
Minimum Humidity 38    
Precipitation  
Precipitation 0.00 in 0.22 in 2.16 in (2013)
Month to date precipitation 6.85  
Year to date precipitation 25.73  
Sea Level Pressure  
Sea Level Pressure 30.14 in    
Wind  
Wind Speed 3 mph (ESE)    
Max Wind Speed 15 mph    
Max Gust Speed 21 mph    
Visibility 10 miles    
Events Rain    
T = Trace of Precipitation, MM = Missing Value Source: NWS Daily Summary

Daily Weather History Graph

Daily Weather History Graph

Search for Another Location

Airport:

Trip Planner

Search our weather history database for the weather conditions in past years. The results will help you decide how hot, cold, wet, or windy it might be!

Date:

Astronomy

Jul. 30, 2013 Rise Set
Actual Time 6:51 AM EDT 8:20 PM EDT
Civil Twilight 6:26 AM EDT 8:45 PM EDT
Nautical Twilight 5:55 AM EDT 9:16 PM EDT
Astronomical Twilight 5:24 AM EDT 9:47 PM EDT
Moon 1:04 AM EDT (7/30) 2:41 PM EDT (7/30)
Length of Visible Light 14h 19m
Length of Day
13h 28m
Last Quarter, 41% of the Moon is Illuminated
Jul 30
Last Quarter
Aug 6
New
Aug 14
First Quarter
Aug 20
Full
Aug 28
Last Quarter

Hourly Weather History & Observations

Time (EDT) Temp. Heat Index Dew Point Humidity Pressure Visibility Wind Dir Wind Speed Gust Speed Precip Events Conditions
12:15 AM 78.8 °F - 71.6 °F 78% 30.17 in 10.0 mi ESE 5.8 mph - N/A   Clear
12:35 AM 77.0 °F - 71.6 °F 83% 30.17 in 10.0 mi Calm Calm - N/A   Clear
12:55 AM 77.0 °F - 71.6 °F 83% 30.17 in 10.0 mi East 3.5 mph - N/A   Clear
1:15 AM 77.0 °F - 71.6 °F 83% 30.17 in 10.0 mi Calm Calm - N/A   Clear
1:35 AM 77.0 °F - 71.6 °F 83% 30.16 in 10.0 mi Calm Calm - N/A   Clear
1:55 AM 77.0 °F - 71.6 °F 83% 30.15 in 10.0 mi East 4.6 mph - N/A   Clear
2:15 AM 77.0 °F - 71.6 °F 83% 30.15 in 10.0 mi East 4.6 mph - N/A   Clear
2:35 AM 77.0 °F - 71.6 °F 83% 30.15 in 10.0 mi ENE 3.5 mph - N/A   Clear
2:55 AM 77.0 °F - 71.6 °F 83% 30.14 in 10.0 mi ENE 4.6 mph - N/A   Clear
3:15 AM 77.0 °F - 71.6 °F 83% 30.14 in 10.0 mi East 4.6 mph - N/A   Clear
3:35 AM 77.0 °F - 71.6 °F 83% 30.13 in 10.0 mi Calm Calm - N/A   Clear
3:55 AM 75.2 °F - 71.6 °F 89% 30.13 in 10.0 mi ENE 4.6 mph - N/A   Clear
4:15 AM 75.2 °F - 71.6 °F 89% 30.13 in 10.0 mi ENE 3.5 mph - N/A   Clear
4:35 AM 77.0 °F - 71.6 °F 83% 30.13 in 10.0 mi ENE 3.5 mph - N/A   Clear
4:55 AM 77.0 °F - 71.6 °F 83% 30.13 in 10.0 mi ENE 4.6 mph - N/A   Clear
5:15 AM 77.0 °F - 71.6 °F 83% 30.12 in 10.0 mi East 3.5 mph - N/A   Clear
5:35 AM 77.0 °F - 71.6 °F 83% 30.13 in 10.0 mi East 3.5 mph - N/A   Clear
5:55 AM 75.2 °F - 71.6 °F 89% 30.14 in 10.0 mi Calm Calm - N/A   Clear
6:15 AM 75.2 °F - 71.6 °F 89% 30.14 in 10.0 mi Calm Calm - N/A   Clear
6:35 AM 75.2 °F - 71.6 °F 89% 30.14 in 10.0 mi Calm Calm - N/A   Clear
6:55 AM 75.2 °F - 71.6 °F 89% 30.15 in 10.0 mi East 4.6 mph - N/A   Clear
7:15 AM 77.0 °F - 71.6 °F 83% 30.16 in 10.0 mi ENE 4.6 mph - N/A   Clear
7:35 AM 77.0 °F - 71.6 °F 83% 30.17 in 10.0 mi East 4.6 mph - N/A   Clear
7:55 AM 78.8 °F - 71.6 °F 78% 30.17 in 10.0 mi ENE 4.6 mph - N/A   Clear
8:15 AM 78.8 °F - 71.6 °F 78% 30.17 in 10.0 mi East 3.5 mph - N/A   Clear
8:35 AM 80.6 °F 85.4 °F 73.4 °F 79% 30.17 in 10.0 mi ENE 3.5 mph - N/A   Clear
8:55 AM 80.6 °F 85.4 °F 73.4 °F 79% 30.18 in 10.0 mi ESE 4.6 mph - N/A   Clear
9:15 AM 80.6 °F 85.4 °F 73.4 °F 79% 30.18 in 10.0 mi Calm Calm - N/A   Clear
9:35 AM 82.4 °F 88.2 °F 73.4 °F 74% 30.18 in 10.0 mi SE 3.5 mph - N/A   Clear
9:55 AM 82.4 °F 88.2 °F 73.4 °F 74% 30.18 in 10.0 mi Calm Calm - N/A   Clear
10:15 AM 84.2 °F 90.9 °F 73.4 °F 70% 30.19 in 10.0 mi South 3.5 mph - N/A   Clear
10:35 AM 84.2 °F 90.9 °F 73.4 °F 70% 30.19 in 10.0 mi Calm Calm - N/A   Clear
10:55 AM 86.0 °F 91.8 °F 71.6 °F 62% 30.19 in 10.0 mi Calm Calm - N/A   Clear
11:15 AM 87.8 °F 93.8 °F 71.6 °F 58% 30.19 in 10.0 mi Calm Calm - N/A   Clear
11:35 AM 87.8 °F 92.6 °F 69.8 °F 55% 30.19 in 10.0 mi Calm Calm - N/A   Clear
11:55 AM 89.6 °F 96.2 °F 71.6 °F 55% 30.18 in 10.0 mi NE 4.6 mph - N/A   Scattered Clouds
12:15 PM 89.6 °F 96.2 °F 71.6 °F 55% 30.18 in 10.0 mi SSE 4.6 mph - N/A   Clear
12:55 PM 89.6 °F 96.2 °F 71.6 °F 55% 30.17 in 10.0 mi South 4.6 mph - N/A   Scattered Clouds
1:15 PM 89.6 °F 96.2 °F 71.6 °F 55% 30.16 in 10.0 mi Calm Calm - N/A   Scattered Clouds
1:35 PM 89.6 °F 96.2 °F 71.6 °F 55% 30.15 in 10.0 mi South 4.6 mph - N/A   Scattered Clouds
2:15 PM 91.4 °F 98.4 °F 71.6 °F 52% 30.14 in 10.0 mi SSW 4.6 mph - N/A   Scattered Clouds
2:35 PM 89.6 °F 94.7 °F 69.8 °F 52% 30.13 in 10.0 mi SSW 3.5 mph - N/A   Scattered Clouds
2:55 PM 91.4 °F 96.8 °F 69.8 °F 49% 30.13 in 10.0 mi Calm Calm - N/A   Mostly Cloudy
3:15 PM 91.4 °F 96.8 °F 69.8 °F 49% 30.12 in 10.0 mi ESE 4.6 mph - N/A   Mostly Cloudy
3:35 PM 91.4 °F 96.8 °F 69.8 °F 49% 30.11 in 10.0 mi ESE 5.8 mph - N/A   Scattered Clouds
3:55 PM 93.2 °F 97.7 °F 68.0 °F 44% 30.10 in 10.0 mi East 5.8 mph - N/A   Clear
4:15 PM 93.2 °F 98.8 °F 69.8 °F 46% 30.09 in 10.0 mi ESE 3.5 mph - N/A   Scattered Clouds
4:35 PM 91.4 °F 95.4 °F 68.0 °F 46% 30.08 in 10.0 mi East 3.5 mph - N/A   Scattered Clouds
4:55 PM 95.0 °F 98.5 °F 66.2 °F 39% 30.08 in 10.0 mi Calm Calm - N/A   Scattered Clouds
5:15 PM 91.4 °F 94.0 °F 66.2 °F 43% 30.08 in 10.0 mi ENE 5.8 mph - N/A   Scattered Clouds
5:35 PM 93.2 °F 94.9 °F 64.4 °F 38% 30.08 in 10.0 mi ENE 3.5 mph - N/A   Clear
5:55 PM 91.4 °F 95.4 °F 68.0 °F 46% 30.08 in 10.0 mi Calm Calm - N/A   Scattered Clouds
6:15 PM 91.4 °F 95.4 °F 68.0 °F 46% 30.08 in 10.0 mi SE 8.1 mph - N/A   Mostly Cloudy
6:35 PM 89.6 °F 93.4 °F 68.0 °F 49% 30.09 in 10.0 mi SE 12.7 mph 19.6 mph N/A   Overcast
6:55 PM 86.0 °F 90.4 °F 69.8 °F 58% 30.08 in 10.0 mi SE 15.0 mph 20.7 mph N/A   Mostly Cloudy
7:15 PM 84.2 °F 87.3 °F 68.0 °F 58% 30.10 in 10.0 mi SSE 9.2 mph - N/A Rain Light Rain
7:35 PM 84.2 °F 88.4 °F 69.8 °F 62% 30.10 in 10.0 mi ESE 4.6 mph - N/A Rain Light Rain
7:55 PM 80.6 °F 85.4 °F 73.4 °F 79% 30.12 in 10.0 mi West 6.9 mph - N/A Rain Light Rain
8:15 PM 80.6 °F 85.4 °F 73.4 °F 79% 30.13 in 10.0 mi WNW 6.9 mph - N/A   Scattered Clouds
8:35 PM 78.8 °F - 73.4 °F 83% 30.13 in 10.0 mi WNW 3.5 mph - N/A   Clear
8:55 PM 78.8 °F - 73.4 °F 83% 30.13 in 10.0 mi Calm Calm - N/A   Clear
9:15 PM 78.8 °F - 73.4 °F 83% 30.13 in 10.0 mi Calm Calm - N/A   Clear
9:35 PM 78.8 °F - 73.4 °F 83% 30.12 in 10.0 mi Calm Calm - N/A   Clear
9:55 PM 80.6 °F 85.4 °F 73.4 °F 79% 30.14 in 10.0 mi Calm Calm - N/A   Clear
10:15 PM 78.8 °F - 73.4 °F 83% 30.15 in 10.0 mi Calm Calm - N/A   Clear
10:35 PM 78.8 °F - 73.4 °F 83% 30.15 in 10.0 mi Calm Calm - N/A   Clear
10:55 PM 80.6 °F 85.4 °F 73.4 °F 79% 30.16 in 10.0 mi Calm Calm - N/A   Clear
11:15 PM 78.8 °F - 73.4 °F 83% 30.15 in 10.0 mi Calm Calm - N/A   Clear
11:35 PM 78.8 °F - 73.4 °F 83% 30.15 in 10.0 mi Calm Calm - N/A   Clear
11:55 PM 78.8 °F - 73.4 °F 83% 30.15 in 10.0 mi Calm Calm - N/A   Clear